Barrow, AK

3:02 PM AKDT on July 26, 2017 (GMT -0800)
Wiley Post-Will Rogers Memorial

Weather History for PABR - October, 2012

Change the Weather History Date:

Saturday, October 13, 2012

  Actual Average Record
Temperature  
Mean Temperature 28 °F 19 °F  
Max Temperature 31 °F 24 °F 38 °F (2009)
Min Temperature 24 °F 15 °F -18 °F (1924)
Degree Days  
Heating Degree Days 37 46  
Month to date heating degree days 435 551  
Since 1 July heating degree days 2587 3092  
Cooling Degree Days 0 0  
Month to date cooling degree days 0 0  
Year to date cooling degree days 0 0  
Moisture  
Dew Point 23 °F    
Average Humidity 0    
Maximum Humidity 0    
Minimum Humidity 0    
Precipitation  
Precipitation 0.12 in 0.01 in 0.25 in (1972)
Month to date precipitation 0.56 0.20  
Year to date precipitation 5.30 3.97  
Snow  
Snow 1.50 in 0.30 in 2.70 in (1972)
Month to date snowfall 4.4 3.6  
Since 1 July snowfall 10.4 9.1  
Since 1 September snowfall 10.2 8.0  
Snow Depth 3.00 in    
Sea Level Pressure  
Sea Level Pressure 29.60 in    
Wind  
Wind Speed 16 mph (WNW)    
Max Wind Speed 25 mph    
Max Gust Speed 30 mph    
Visibility 7 miles    
Events Rain , Snow    
T = Trace of Precipitation, MM = Missing Value Source: NWS Daily Summary

Daily Weather History Graph

Daily Weather History Graph

Search for Another Location

Airport or City:

Trip Planner

Search our weather history database for the weather conditions in past years. The results will help you decide how hot, cold, wet, or windy it might be!

Date:

Astronomy

Oct. 13, 2012 Rise Set
Actual Time 9:41 AM AKDT 6:43 PM AKDT
Civil Twilight 8:34 AM AKDT 7:50 PM AKDT
Nautical Twilight 7:18 AM AKDT 9:04 PM AKDT
Astronomical Twilight 5:58 AM AKDT 10:24 PM AKDT
Moon 6:58 AM AKDT (10/13) 5:59 PM AKDT (10/13)
Length of Visible Light 11h 16m
Length of Day
9h 01m
Waning Crescent, 4% of the Moon is Illuminated
Oct 13
Waning Crescent
Oct 15
New
Oct 21
First Quarter
Oct 29
Full
Nov 6
Last Quarter

Hourly Weather History & Observations

Time (AKDT) Temp. Windchill Dew Point Humidity Pressure Visibility Wind Dir Wind Speed Gust Speed Precip Events Conditions
12:10 AM 30.2 °F 17.1 °F 24.8 °F 80% 29.71 in 2.0 mi WNW 21.9 mph 28.8 mph 0.00 in Snow Light Snow
12:17 AM 28.4 °F 15.8 °F 26.6 °F 93% 29.71 in 1.2 mi WNW 18.4 mph - 0.00 in Snow Light Snow
12:23 AM 30.2 °F 17.8 °F 24.8 °F 80% 29.70 in 3.0 mi NW 19.6 mph - 0.00 in Snow Light Snow
12:51 AM 30.2 °F 18.1 °F 24.8 °F 80% 29.70 in 7.0 mi WNW 18.4 mph - 0.00 in Snow Light Snow
12:53 AM 30.0 °F 17.9 °F 24.1 °F 79% 29.70 in 7.0 mi NW 18.4 mph - 0.00 in Snow Light Snow
1:51 AM 30.2 °F 19.3 °F 23.0 °F 75% 29.69 in 9.0 mi NW 15.0 mph 25.3 mph 0.00 in Snow Light Snow
1:53 AM 30.0 °F 18.7 °F 23.0 °F 75% 29.69 in 9.0 mi NW 16.1 mph 25.3 mph 0.00 in Snow Light Snow
2:22 AM 30.2 °F 17.4 °F 21.2 °F 69% 29.68 in 9.0 mi NW 20.7 mph - 0.00 in Snow Light Snow
2:42 AM 28.4 °F 16.2 °F 24.8 °F 86% 29.68 in 4.0 mi WNW 17.3 mph - 0.00 in Snow Light Snow
2:53 AM 30.0 °F 17.2 °F 26.1 °F 85% 29.68 in 4.0 mi NW 20.7 mph - 0.00 in Snow Light Snow
3:19 AM 30.2 °F 17.8 °F 23.0 °F 75% 29.67 in 10.0 mi NW 19.6 mph - 0.00 in   Mostly Cloudy
3:51 AM 30.2 °F 18.1 °F 21.2 °F 69% 29.67 in 10.0 mi NW 18.4 mph - 0.00 in   Mostly Cloudy
3:53 AM 30.0 °F 17.5 °F 21.9 °F 72% 29.67 in 10.0 mi NW 19.6 mph - N/A   Mostly Cloudy
4:09 AM 28.4 °F 15.4 °F 24.8 °F 86% 29.67 in 1.8 mi WNW 19.6 mph 29.9 mph 0.00 in Snow Light Snow
4:18 AM 30.2 °F 17.8 °F 24.8 °F 80% 29.66 in 3.0 mi WNW 19.6 mph - 0.00 in Snow Light Snow
4:43 AM 28.4 °F 15.8 °F 24.8 °F 86% 29.66 in 1.8 mi NNW 18.4 mph 28.8 mph 0.00 in Snow Light Snow
4:53 AM 28.9 °F 16.9 °F 25.0 °F 85% 29.67 in 1.5 mi NW 17.3 mph - 0.00 in Snow Light Snow
4:58 AM 30.2 °F 18.9 °F 24.8 °F 80% 29.66 in 3.0 mi NW 16.1 mph 23.0 mph 0.00 in Snow Light Snow
5:18 AM 28.4 °F 17.0 °F 24.8 °F 86% 29.66 in 1.8 mi NW 15.0 mph - 0.00 in Snow Light Snow
5:31 AM 30.2 °F 18.9 °F 23.0 °F 75% 29.66 in 3.0 mi NW 16.1 mph - 0.01 in Snow Light Snow
5:53 AM 30.0 °F 18.3 °F 21.0 °F 69% 29.66 in 9.0 mi NW 17.3 mph 24.2 mph 0.01 in Snow Light Snow
6:22 AM 28.4 °F 16.6 °F 21.2 °F 74% 29.65 in 9.0 mi NW 16.1 mph - 0.00 in Snow Light Snow
6:37 AM 28.4 °F 15.8 °F 24.8 °F 86% 29.65 in 2.5 mi WNW 18.4 mph - 0.00 in Snow Light Snow
6:51 AM 30.2 °F 18.5 °F 21.2 °F 69% 29.64 in 9.0 mi NW 17.3 mph - 0.00 in Snow Light Snow
6:53 AM 30.0 °F 19.1 °F 21.9 °F 72% 29.65 in 9.0 mi WNW 15.0 mph - 0.00 in Snow Light Snow
7:53 AM 30.0 °F 18.3 °F 21.0 °F 69% 29.64 in 10.0 mi WNW 17.3 mph - 0.00 in   Mostly Cloudy
8:29 AM 30.2 °F 18.5 °F 19.4 °F 64% 29.63 in 10.0 mi WNW 17.3 mph - N/A   Mostly Cloudy
8:53 AM 30.0 °F 19.1 °F 21.9 °F 72% 29.63 in 10.0 mi WNW 15.0 mph - N/A   Mostly Cloudy
9:53 AM 30.0 °F 18.3 °F 21.9 °F 72% 29.62 in 10.0 mi West 17.3 mph - N/A   Overcast
10:20 AM 28.4 °F 16.2 °F 21.2 °F 74% 29.61 in 10.0 mi WNW 17.3 mph - N/A   Mostly Cloudy
10:50 AM 28.4 °F 18.0 °F 24.8 °F 86% 29.61 in 2.5 mi West 12.7 mph 24.2 mph 0.00 in Snow Light Snow
10:53 AM 28.9 °F 16.1 °F 24.1 °F 82% 29.61 in 3.0 mi WNW 19.6 mph 23.0 mph 0.00 in Snow Light Snow
11:22 AM 28.4 °F 18.0 °F 24.8 °F 86% 29.61 in 1.8 mi WNW 12.7 mph - 0.00 in Snow Light Snow
11:30 AM 28.4 °F 18.5 °F 24.8 °F 86% 29.61 in 3.0 mi West 11.5 mph - 0.00 in Snow Light Snow
11:53 AM 30.0 °F 19.1 °F 21.0 °F 69% 29.60 in 10.0 mi West 15.0 mph 23.0 mph 0.00 in   Overcast
12:53 PM 28.9 °F 17.7 °F 24.1 °F 82% 29.59 in 7.0 mi West 15.0 mph - 0.00 in Snow Light Snow
1:20 PM 30.2 °F 19.8 °F 21.2 °F 69% 29.58 in 10.0 mi West 13.8 mph - 0.00 in   Mostly Cloudy
1:53 PM 30.0 °F 18.3 °F 21.9 °F 72% 29.58 in 10.0 mi West 17.3 mph - N/A   Mostly Cloudy
2:53 PM 30.0 °F 16.9 °F 21.0 °F 69% 29.57 in 10.0 mi West 21.9 mph - 0.00 in   Mostly Cloudy
3:53 PM 28.9 °F 17.3 °F 23.0 °F 78% 29.56 in 10.0 mi West 16.1 mph 21.9 mph N/A   Mostly Cloudy
3:55 PM 28.4 °F 16.2 °F 23.0 °F 80% 29.55 in 10.0 mi West 17.3 mph 21.9 mph N/A   Mostly Cloudy
4:53 PM 28.9 °F 17.3 °F 19.9 °F 69% 29.55 in 10.0 mi WSW 16.1 mph 24.2 mph N/A   Mostly Cloudy
5:20 PM 28.4 °F 15.8 °F 23.0 °F 80% 29.53 in 7.0 mi West 18.4 mph 24.2 mph 0.00 in Rain , Snow Light Freezing Rain
5:33 PM 28.4 °F 16.2 °F 23.0 °F 80% 29.53 in 8.0 mi West 17.3 mph - 0.00 in   Mostly Cloudy
5:53 PM 28.0 °F 17.0 °F 21.9 °F 78% 29.54 in 8.0 mi WSW 13.8 mph - 0.00 in   Mostly Cloudy
6:53 PM 28.4 °F 17.5 °F 21.2 °F 74% 29.52 in 10.0 mi West 13.8 mph - N/A   Mostly Cloudy
7:53 PM 28.9 °F 18.2 °F 18.0 °F 64% 29.51 in 10.0 mi West 13.8 mph - N/A   Overcast
8:00 PM 28.4 °F 16.6 °F 19.4 °F 69% 29.50 in 10.0 mi West 16.1 mph - N/A   Overcast
8:11 PM 28.4 °F 16.2 °F 19.4 °F 69% 29.50 in 10.0 mi West 17.3 mph - N/A   Overcast
8:26 PM 28.4 °F 18.0 °F 19.4 °F 69% 29.50 in 10.0 mi West 12.7 mph - N/A   Overcast
8:53 PM 28.9 °F 18.6 °F 19.9 °F 69% 29.49 in 10.0 mi WSW 12.7 mph 21.9 mph 0.00 in Snow Light Snow
9:53 PM 30.0 °F 18.3 °F 19.0 °F 64% 29.48 in 9.0 mi West 17.3 mph 24.2 mph 0.00 in Snow Light Snow
10:53 PM 27.0 °F 15.2 °F 23.0 °F 85% 29.47 in 3.0 mi South 15.0 mph - 0.00 in Snow Light Snow
10:56 PM 26.6 °F 14.7 °F 23.0 °F 86% 29.46 in 1.8 mi SSW 15.0 mph - 0.00 in Snow Light Snow
11:08 PM 26.6 °F 14.3 °F 24.8 °F 93% 29.46 in 0.8 mi SSW 16.1 mph - 0.00 in Snow Light Snow
11:11 PM 26.6 °F 15.7 °F 24.8 °F 93% 29.46 in 1.0 mi SSW 12.7 mph - 0.00 in Snow Light Snow
11:21 PM 24.8 °F 19.1 °F 24.8 °F 100% 29.45 in 5.0 mi SSW 4.6 mph - 0.01 in Snow Light Snow
11:53 PM 27.0 °F 17.3 °F 24.1 °F 89% 29.46 in 0.8 mi SW 10.4 mph 19.6 mph 0.06 in Snow Light Snow